Weather in Yangiqurgan

Uzbekistan     41°11′14″N   71°43′39″E
temp.,
°C
wind,
m/s
gust,
m/s
humid.,
%
clouds,
%
prec.,
mm/h
press.,
hPa
HPBL,
m
6 march, sat
sat623:00+4n57510 0.0 1026121
02:00+3n464037 0.0 102398
05:00+3nne333669 0.0 102136
08:00+5nne333691 0.0 101855
11:00+10ene233195 0.0 1014393
14:00+14nne1330100 0.0 1011635
17:00+10ssw2437100 0.0 1011300
20:00+9ne1243100 0.0 101429
7 march, sun
sun723:00+8ne2248100 0.0 101629
02:00+6sse1256100 0.0 101645
05:00+6ene1263100 0.1 101852
08:00+6n1266100 0.0 1019374
11:00+7nne2271100 0.1 1019610
14:00+10e1253100 0.0 10181175
17:00+10e015094 0.0 10181211
20:00+8nne236290 0.0 1020130
8 march, mon
mon823:00+6n236660 0.0 102044
02:00+5n236428 0.0 101930
05:00+5n226163 0.0 102022
08:00+7nne1256100 0.0 102155
11:00+10sse1145100 0.0 1020737
14:00+12sse114099 0.0 10201228
17:00+12sse1141100 0.0 10211101
20:00+9n1254100 0.0 102241
9 march, tue
tue923:00+8n3453100 0.0 102281
02:00+7n3351100 0.0 102155
05:00+7nne2250100 0.0 101925
08:00+8nne234699 0.0 101955
11:00+13ene1132100 0.0 1016580
14:00+15e1226100 0.0 10141127
17:00+15s1129100 0.0 1013634
20:00+11nne3341100 0.0 101354
10 march, wed
wed1023:00+11nne3343100 0.0 101251
02:00+10nw1144100 0.0 101123
05:00+9n1251100 0.0 101226
08:00+9e1153100 0.0 101343
11:00+9nw1156100 0.1 1014806
14:00+8sse3471100 0.6 1014734
17:00+8se3581100 1.2 1015550
20:00+7sse3489100 0.9 1017348